This demonstration page uses our WeatherBlox Daily Observations layout. Learn more.

Left ArrowRight Arrow

Hourly Observations for November 27, 2021

Temp ( °F °C ) Dew Point ( °F °C ) Humidity (%) Winds ( mph kmh ) Pressure ( in mb ) Visibility ( mi km ) Precip ( " mm )
12:53 am 00:53 Clear 25 -3.9 21 -6.1 85 85 Calm 30.14 1021 10 16 0.00 0.00
1:53 am 01:53 Partly Cloudy 27 -2.8 22 -5.6 81 81 Calm 30.14 1021 10 16 0.00 0.00
2:53 am 02:53 Mostly Cloudy 29 -1.7 23 -5 78 78 Calm 30.14 1021 10 16 0.00 0.00
3:53 am 03:53 Mostly Clear 29 -1.7 23 -5 78 78 E 3 6 30.12 1020 10 16 0.00 0.00
4:53 am 04:53 Mostly Cloudy 31 -0.6 21 -6.1 67 67 Calm 30.10 1019 10 16 0.00 0.00
5:53 am 05:53 Cloudy 32 0 21 -6.1 64 64 SE 3 6 30.10 1019 10 16 0.00 0.00
6:53 am 06:53 Cloudy 33 0.6 21 -6.1 61 61 Calm 30.10 1019 10 16 0.00 0.00
7:53 am 07:53 Cloudy 33 0.6 21 -6.1 61 61 VRB 3 6 30.09 1019 10 16 0.00 0.00
8:53 am 08:53 Cloudy 34 1.1 22 -5.6 61 61 SSE 5 7 30.07 1018 10 16 0.00 0.00
9:53 am 09:53 Partly Cloudy 36 2.2 21 -6.1 55 55 VRB 7 11 30.04 1017 10 16 0.00 0.00
10:53 am 10:53 Mostly Cloudy 40 4.4 20 -6.7 45 45 VRB 7 11 30.03 1017 10 16 0.00 0.00
11:53 am 11:53 Cloudy 43 6.1 21 -6.1 42 42 VRB 6 9 30.01 1016 10 16 0.00 0.00
12:53 pm 12:53 Cloudy 46 7.8 22 -5.6 38 38 SSW 9 15 29.96 1014 10 16 0.00 0.00
1:53 pm 13:53 Cloudy 47 8.3 23 -5 39 39 SSW 8 13 29.92 1013 10 16 0.00 0.00
2:53 pm 14:53 Cloudy 47 8.3 24 -4.4 41 41 SSW 8 13 29.91 1013 10 16 0.00 0.00
3:53 pm 15:53 Cloudy 47 8.3 25 -3.9 42 42 WSW 5 7 29.92 1013 10 16 0.00 0.00
4:53 pm 16:53 Partly Cloudy 46 7.8 26 -3.3 46 46 Calm 29.90 1012 10 16 0.00 0.00
5:53 pm 17:53 Mostly Clear 44 6.7 27 -2.8 51 51 Calm 29.90 1012 10 16 0.00 0.00
6:53 pm 18:53 Mostly Cloudy 45 7.2 27 -2.8 49 49 Calm 29.89 1012 10 16 0.00 0.00
7:53 pm 19:53 Cloudy with Light Rain 44 6.7 28 -2.2 53 53 VRB 3 6 29.86 1011 10 16 0.00 0.00
8:53 pm 20:53 Clear 39 3.9 29 -1.7 67 67 Calm 29.87 1012 10 16 0.00 0.00
9:53 pm 21:53 Mostly Cloudy 36 2.2 28 -2.2 73 73 Calm 29.87 1012 10 16 0.00 0.00
10:53 pm 22:53 Clear 31 -0.6 27 -2.8 85 85 Calm 29.87 1012 10 16 0.00 0.00
11:53 pm 23:53 Clear 31 -0.6 27 -2.8 85 85 WNW 3 6 29.88 1012 10 16 0.00 0.00

Powered by AerisWeather